カタログに戻る

STARLINK-32685

運用中通信VLEO
NORAD 62500·PAYLOAD·🇺🇸 United States

打ち上げ Jan 6, 2025 から Cape Canaveral Space Force Station

Loading…

次のパス (今後24時間)

TLE

最新Source: CelesTrak SupGP

元期: Sep 15, 2026, 02:51 UTC

1 62500C 25003P   26258.11923611  .00021302  00000+0  77151-3 0  2589
2 62500  43.0003 299.4270 0001256 262.6090 305.2818 15.27569556    16

AllMySatでSTARLINK-32685をリアルタイム追跡

Download on the App Store